GW2062 Weather Reports


time (UTC)temp
C
wind
direction
speed
KPH
gust
KPH
rain 1hr
cm
rain 24hr
cm
rain mn
cm
humidity
%
barometer
mb
20260510144026 10 293 0.0 4.8 0.00 0.38 0.00 49 1013.1
20260510143525 10 297 0.0 1.6 0.00 0.38 0.00 50 1013.1
20260510143025 10 297 0.0 1.6 0.00 0.38 0.00 50 1013.1
20260510142525 10 291 0.0 1.6 0.00 0.38 0.00 49 1013.1
20260510142025 10 53 0.0 1.6 0.00 0.38 0.00 51 1013.0
20260510141524 10 314 0.0 8.0 0.00 0.38 0.00 49 1012.9
20260510141023 10 60 0.0 16.1 0.00 0.38 0.00 50 1012.9
20260510140522 10 8 0.0 16.1 0.00 0.38 0.00 51 1012.9
20260510140022 10 106 0.0 0.0 0.00 0.38 0.00 50 1012.8
20260510135521 10 289 0.0 8.0 0.00 0.38 0.00 51 1012.7
20260510135024 10 63 0.0 8.0 0.00 0.38 0.00 51 1012.7
20260510134520 10 36 0.0 0.0 0.00 0.38 0.00 53 1012.7
20260510134019 9 333 0.0 0.0 0.00 0.38 0.00 54 1012.5
20260510133517 9 98 0.0 1.6 0.00 0.38 0.00 52 1012.6
20260510133017 8 349 0.0 1.6 0.00 0.38 0.00 55 1012.5
20260510132515 8 300 0.0 1.6 0.00 0.38 0.00 55 1012.5
20260510132013 8 158 0.0 1.6 0.00 0.38 0.00 56 1012.3
20260510131513 8 65 0.0 1.6 0.00 0.38 0.00 56 1012.3
20260510131011 8 302 0.0 1.6 0.00 0.38 0.00 56 1012.3
20260510130510 7 214 0.0 1.6 0.00 0.38 0.00 61 1012.3
20260510130010 7 91 0.0 1.6 0.00 0.38 0.00 62 1012.2
20260510125508 7 103 0.0 0.0 0.00 0.38 0.00 62 1012.2
20260510125008 7 307 0.0 0.0 0.00 0.38 0.00 64 1012.1
20260510124513 7 283 0.0 1.6 0.00 0.38 0.00 65 1012.1
20260510124007 7 78 0.0 1.6 0.00 0.38 0.00 66 1012.1
20260510123505 6 278 0.0 0.0 0.00 0.38 0.00 64 1012.0
20260510123004 6 260 0.0 0.0 0.00 0.38 0.00 71 1012.0
20260510122504 6 305 0.0 0.0 0.00 0.38 0.00 71 1012.1
20260510122006 6 301 0.0 0.0 0.00 0.38 0.00 73 1012.0
20260510121502 6 276 0.0 1.6 0.00 0.38 0.00 73 1011.9
20260510121001 6 261 0.0 1.6 0.00 0.38 0.00 75 1011.9
20260510120602 6 262 0.0 0.0 0.00 0.38 0.00 78 1012.0
20260510120058 5 262 0.0 0.0 0.00 0.38 0.00 79 1011.8
20260510115556 5 257 0.0 0.0 0.00 0.38 0.00 80 1011.8
20260510115055 5 267 0.0 0.0 0.00 0.38 0.00 82 1011.7
20260510114556 5 307 0.0 0.0 0.00 0.38 0.00 83 1011.8
20260510114053 4 309 0.0 0.0 0.00 0.38 0.00 85 1011.8
20260510113550 4 266 0.0 0.0 0.00 0.38 0.00 88 1011.7
20260510113049 3 245 0.0 0.0 0.00 0.38 0.00 90 1011.6
20260510112049 3 238 0.0 0.0 0.00 0.38 0.00 93 1011.4
20260510111555 2 238 0.0 0.0 0.00 0.38 0.00 94 1011.2
20260510111045 2 238 0.0 0.0 0.00 0.38 0.00 95 1011.1
20260510110544 2 238 0.0 0.0 0.00 0.38 0.00 96 1011.1
20260510110045 1 238 0.0 0.0 0.00 0.38 0.00 96 1011.0
20260510105540 1 238 0.0 0.0 0.00 0.38 0.00 96 1010.9
20260510105039 1 238 0.0 0.0 0.00 0.38 0.00 96 1010.9
20260510104538 1 238 0.0 0.0 0.00 0.38 0.00 96 1010.8
20260510104037 1 238 0.0 0.0 0.00 0.38 0.38 96 1010.9
20260510103541 1 238 0.0 0.0 0.00 0.38 0.38 96 1010.8
20260510103137 1 238 0.0 0.0 0.00 0.38 0.38 96 1010.7
20260510102040 1 69 0.0 0.0 0.00 0.38 0.38 96 1010.6
20260510101535 0 69 0.0 0.0 0.00 0.38 0.38 95 1010.5
20260510101034 1 69 0.0 0.0 0.00 0.38 0.38 95 1010.4
20260510100536 1 69 0.0 0.0 0.00 0.38 0.38 95 1010.3
20260510100035 1 69 0.0 0.0 0.00 0.38 0.38 95 1010.2
20260510095532 1 69 0.0 0.0 0.00 0.38 0.38 95 1010.2
20260510095032 1 69 0.0 0.0 0.00 0.38 0.38 95 1010.1
20260510094542 1 69 0.0 0.0 0.00 0.38 0.38 95 1010.1
20260510094030 1 69 0.0 0.0 0.00 0.38 0.38 95 1010.0
20260510093529 1 69 0.0 0.0 0.00 0.38 0.38 95 1009.9
20260510093028 1 69 0.0 0.0 0.00 0.38 0.38 95 1009.7
20260510092026 1 69 0.0 0.0 0.00 0.38 0.38 94 1009.6
20260510091532 1 69 0.0 0.0 0.00 0.38 0.38 94 1009.5
20260510091024 1 69 0.0 0.0 0.00 0.38 0.38 94 1009.5
20260510090524 1 69 0.0 0.0 0.00 0.38 0.38 94 1009.3
20260510090024 1 69 0.0 0.0 0.00 0.38 0.38 94 1009.2
20260510085521 1 69 0.0 0.0 0.00 0.38 0.38 94 1009.1
20260510085021 1 69 0.0 0.0 0.00 0.38 0.38 93 1009.0
20260510084521 1 69 0.0 0.0 0.00 0.38 0.38 93 1008.9
20260510084020 1 69 0.0 0.0 0.00 0.38 0.38 93 1008.8
20260510083519 1 69 0.0 0.0 0.00 0.38 0.38 93 1008.7
20260510083023 1 69 0.0 0.0 0.00 0.38 0.38 92 1008.7
20260510082022 2 69 0.0 0.0 0.00 0.38 0.38 92 1008.6
20260510081518 2 69 0.0 0.0 0.00 0.38 0.38 92 1008.5
20260510081015 2 69 0.0 0.0 0.00 0.38 0.38 91 1008.4
20260510080515 2 69 0.0 0.0 0.00 0.38 0.38 91 1008.2
20260510080022 2 69 0.0 0.0 0.00 0.38 0.38 91 1008.2
20260510075512 2 69 0.0 0.0 0.00 0.38 0.38 90 1008.2
20260510075011 2 69 0.0 0.0 0.00 0.38 0.38 90 1008.1
20260510074511 2 69 0.0 0.0 0.00 0.38 0.38 89 1008.0
20260510074012 3 69 0.0 0.0 0.00 0.38 0.38 89 1008.1
20260510073508 3 69 0.0 0.0 0.00 0.38 0.38 88 1007.9
20260510073017 3 69 0.0 0.0 0.00 0.38 0.38 87 1007.9
20260510072006 3 69 0.0 0.0 0.00 0.38 0.38 85 1007.8
20260510071505 4 70 0.0 0.0 0.00 0.38 0.38 85 1007.8
20260510071002 4 69 0.0 0.0 0.00 0.38 0.38 84 1007.7
20260510070502 4 69 0.0 0.0 0.00 0.38 0.38 84 1007.7
20260510070001 4 104 0.0 0.0 0.00 0.38 0.38 84 1007.6
20260510065601 5 102 0.0 0.0 0.00 0.38 0.38 83 1007.5
20260510065059 5 102 0.0 0.0 0.00 0.38 0.38 83 1007.5
20260510064605 5 103 0.0 0.0 0.00 0.38 0.38 83 1007.4
20260510064058 5 91 0.0 0.0 0.00 0.38 0.38 83 1007.5
20260510063557 5 120 0.0 0.0 0.00 0.38 0.38 82 1007.4
20260510063057 5 136 0.0 0.0 0.00 0.38 0.38 83 1007.3
20260510062055 5 140 0.0 0.0 0.00 0.38 0.38 82 1007.2
20260510061559 5 124 0.0 0.0 0.00 0.38 0.38 82 1007.1
20260510061054 5 20 0.0 0.0 0.00 0.38 0.38 82 1007.1
20260510060556 5 117 0.0 0.0 0.00 0.38 0.38 82 1007.1
20260510060055 5 124 0.0 0.0 0.00 0.38 0.38 81 1007.0
20260510055555 5 132 0.0 1.6 0.00 0.38 0.38 81 1007.1
20260510055052 5 122 0.0 1.6 0.00 0.38 0.38 82 1006.9
20260510054552 5 141 0.0 0.0 0.00 0.38 0.38 81 1006.9
20260510054052 5 26 0.0 0.0 0.00 0.38 0.38 81 1007.0
20260510053551 6 312 0.0 12.9 0.00 0.38 0.38 80 1006.9
20260510053050 6 47 0.0 12.9 0.00 0.38 0.38 80 1006.8
20260510052052 6 103 0.0 1.6 0.00 0.38 0.38 79 1006.7
20260510051600 6 148 0.0 0.0 0.00 0.38 0.38 79 1006.7
20260510051050 6 294 0.0 0.0 0.00 0.38 0.38 78 1006.5
20260510050547 6 151 0.0 0.0 0.00 0.38 0.38 78 1006.4
20260510050047 6 74 0.0 1.6 0.00 0.38 0.38 77 1006.3
20260510045547 6 91 0.0 1.6 0.00 0.38 0.38 76 1006.2
20260510045046 6 30 0.0 1.6 0.00 0.38 0.38 76 1006.1
20260510044550 6 67 0.0 1.6 0.00 0.38 0.38 76 1006.1
20260510044044 7 60 0.0 1.6 0.00 0.38 0.38 76 1005.9
20260510043544 6 124 0.0 0.0 0.00 0.38 0.38 76 1005.7
20260510043045 7 113 0.0 0.0 0.00 0.38 0.38 77 1005.6
20260510042041 7 63 0.0 0.0 0.00 0.38 0.38 77 1005.4
20260510041543 7 63 0.0 0.0 0.00 0.38 0.38 76 1005.3
20260510041041 7 63 0.0 0.0 0.00 0.38 0.38 76 1005.2
20260510040540 7 78 0.0 0.0 0.00 0.38 0.38 75 1005.1
20260510040039 7 108 0.0 0.0 0.00 0.38 0.38 75 1005.0
20260510035539 8 94 0.0 0.0 0.00 0.38 0.38 74 1005.0
20260510035038 8 99 0.0 0.0 0.00 0.38 0.38 74 1005.0
20260510034538 8 117 0.0 0.0 0.00 0.38 0.38 74 1004.9
20260510034039 8 1 0.0 4.8 0.00 0.38 0.38 75 1004.8
20260510033537 9 46 0.0 4.8 0.00 0.38 0.38 73 1004.8
20260510033036 10 68 0.0 1.6 0.00 0.38 0.38 72 1004.7
20260510032036 10 139 0.0 0.0 0.00 0.38 0.38 69 1004.4
20260510031535 10 141 0.0 0.0 0.00 0.38 0.38 71 1004.4
20260510031034 10 134 0.0 0.0 0.00 0.38 0.38 73 1004.2
20260510030533 11 89 0.0 0.0 0.00 0.38 0.38 73 1004.2
20260510030042 11 89 0.0 0.0 0.00 0.38 0.38 72 1004.2
20260510025533 11 90 0.0 0.0 0.00 0.38 0.38 74 1004.2
20260510025033 10 270 0.0 0.0 0.00 0.38 0.38 75 1003.9
20260510024533 10 270 0.0 0.0 0.00 0.38 0.38 75 1004.1
20260510024031 10 200 0.0 0.0 0.00 0.38 0.38 77 1004.0
20260510023530 10 101 0.0 0.0 0.00 0.38 0.38 76 1003.8
20260510023030 10 101 0.0 0.0 0.00 0.38 0.38 74 1003.6
20260510022030 11 101 0.0 0.0 0.00 0.38 0.38 73 1003.4
20260510021527 11 101 0.0 0.0 0.00 0.38 0.38 72 1003.3
20260510021026 11 92 0.0 0.0 0.00 0.38 0.38 71 1003.3
20260510020527 11 142 0.0 0.0 0.00 0.38 0.38 69 1003.2
20260510020025 11 143 0.0 0.0 0.00 0.38 0.38 67 1002.8
20260510015526 12 51 0.0 1.6 0.00 0.38 0.38 65 1002.7
20260510015023 12 93 0.0 1.6 0.00 0.38 0.38 63 1002.6
20260510014524 13 59 0.0 1.6 0.00 0.38 0.38 60 1002.4
20260510014021 13 135 0.0 1.6 0.00 0.38 0.38 56 1002.2
20260510013521 14 299 0.0 8.0 0.00 0.38 0.38 55 1002.1
20260510013020 15 302 0.0 6.4 0.00 0.38 0.38 53 1001.9
20260510012019 15 125 0.0 6.4 0.00 0.38 0.38 52 1001.6
20260510011519 15 331 0.0 4.8 0.00 0.38 0.38 52 1001.4
20260510011017 15 276 0.0 1.6 0.00 0.38 0.38 50 1001.4
20260510010518 16 283 0.0 0.0 0.00 0.38 0.38 47 1001.2
20260510010018 16 294 0.0 0.0 0.00 0.38 0.38 43 1000.8
20260510005517 16 294 0.0 0.0 0.00 0.38 0.38 43 1000.5
20260510005016 16 294 0.0 0.0 0.00 0.38 0.38 43 1000.4
20260510004516 16 294 0.0 0.0 0.00 0.38 0.38 41 1000.5
20260510004018 16 260 0.0 1.6 0.00 0.38 0.38 41 1000.4
20260510003517 16 270 0.0 3.2 0.00 0.38 0.38 41 1000.3
20260510003026 16 296 0.0 3.2 0.00 0.38 0.38 41 1000.3
20260510002015 17 258 0.0 1.6 0.00 0.38 0.38 41 1000.1
20260510001521 17 271 0.0 1.6 0.00 0.38 0.38 40 1000.1
20260510001015 17 284 0.0 11.3 0.00 0.38 0.38 40 1000.0
20260510000514 17 266 0.0 17.7 0.00 0.38 0.38 39 999.9
20260510000015 17 306 0.0 17.7 0.00 0.38 0.38 39 999.8
20260509235614 17 297 1.6 9.7 0.00 0.38 0.38 39 999.8
20260509235013 17 311 0.0 17.7 0.00 0.38 0.38 41 999.8
20260509234523 17 298 0.0 12.9 0.00 0.38 0.38 43 999.8
20260509234013 17 265 0.0 9.7 0.00 0.38 0.38 42 999.7
20260509233512 18 277 0.0 14.5 0.00 0.38 0.38 43 999.6
20260509233011 18 298 0.0 14.5 0.00 0.38 0.38 42 999.3
20260509232014 18 259 1.6 14.5 0.00 0.38 0.38 43 999.2
20260509231515 18 293 0.0 8.0 0.00 0.38 0.38 44 999.1
20260509231013 18 292 0.0 16.1 0.00 0.38 0.38 44 999.0
20260509230513 18 293 1.6 16.1 0.00 0.38 0.38 44 998.8
20260509230013 18 289 0.0 8.0 0.00 0.38 0.38 44 998.8
20260509225512 18 334 1.6 17.7 0.00 0.38 0.38 43 998.6
20260509225013 18 285 3.2 17.7 0.00 0.38 0.38 43 998.5
20260509224511 19 248 0.0 9.7 0.00 0.38 0.38 46 998.4
20260509224011 18 195 0.0 19.3 0.00 0.38 0.38 45 998.3
20260509223511 18 257 1.6 12.9 0.00 0.38 0.38 45 998.2
20260509223010 18 288 1.6 14.5 0.00 0.38 0.38 44 998.1
20260509222009 19 285 4.8 25.7 0.00 0.38 0.38 43 997.9
20260509221509 19 250 0.0 20.9 0.00 0.38 0.38 45 997.8
20260509221010 19 250 4.8 24.1 0.00 0.38 0.38 43 997.8
20260509220508 19 205 0.0 24.1 0.00 0.38 0.38 43 997.7
20260509220020 19 253 3.2 19.3 0.00 0.38 0.38 43 997.7
20260509215509 19 271 4.8 25.7 0.00 0.38 0.38 43 997.5
20260509215008 19 283 8.0 25.7 0.00 0.38 0.38 42 997.6
20260509214504 19 264 4.8 17.7 0.00 0.38 0.38 42 997.4
20260509214009 19 293 3.2 20.9 0.00 0.38 0.38 43 997.3
20260509213503 19 265 6.4 20.9 0.03 0.38 0.38 41 997.3
20260509213003 19 271 1.6 27.4 0.05 0.38 0.38 41 997.4
20260509212101 19 224 8.0 32.2 0.05 0.38 0.38 40 997.2
20260509211558 20 260 4.8 32.2 0.05 0.38 0.38 42 997.1
20260509211057 19 246 3.2 22.5 0.05 0.38 0.38 46 997.0
20260509210556 19 246 1.6 22.5 0.05 0.38 0.38 43 997.1
20260509210105 19 256 0.0 17.7 0.05 0.38 0.38 45 997.0
20260509205553 19 277 1.6 19.3 0.05 0.38 0.38 45 997.0
20260509205052 18 271 3.2 27.4 0.05 0.38 0.38 46 997.0
20260509204552 18 231 4.8 27.4 0.05 0.38 0.38 49 997.3
20260509204051 18 349 3.2 24.1 0.05 0.38 0.38 50 997.5
20260509203551 18 280 1.6 12.9 0.05 0.38 0.38 52 997.4
20260509203049 18 40 0.0 6.4 0.03 0.36 0.36 75 997.4
20260509202052 17 263 0.0 4.8 0.03 0.33 0.33 73 997.4
20260509201551 17 242 0.0 0.0 0.03 0.33 0.33 77 997.5
20260509201051 16 306 0.0 0.0 0.05 0.33 0.33 77 997.7
20260509200554 16 255 0.0 3.2 0.08 0.33 0.33 80 997.8
20260509200053 15 265 0.0 3.2 0.15 0.33 0.33 81 997.8
20260509195553 15 255 0.0 1.6 0.23 0.33 0.33 84 997.8
20260509195052 15 291 0.0 1.6 0.30 0.33 0.33 86 997.8
20260509194550 13 257 0.0 3.2 0.30 0.33 0.33 87 997.9
20260509194050 13 267 0.0 3.2 0.30 0.33 0.33 90 998.1
20260509193551 12 238 0.0 1.6 0.30 0.33 0.33 91 998.1
20260509193050 12 250 0.0 1.6 0.33 0.33 0.33 92 998.3
20260509192050 11 110 0.0 1.6 0.30 0.30 0.30 89 998.6
20260509191550 12 280 0.0 4.8 0.30 0.30 0.30 87 998.6
20260509191049 12 284 0.0 4.8 0.28 0.28 0.28 85 998.7
20260509190549 13 214 0.0 9.7 0.25 0.25 0.25 82 999.0
20260509190049 13 213 0.0 14.5 0.23 0.23 0.23 79 998.8
20260509185549 15 266 0.0 14.5 0.13 0.13 0.13 77 998.5
20260509185049 15 188 0.0 1.6 0.08 0.08 0.08 77 997.8
20260509184554 16 243 0.0 6.4 0.03 0.03 0.03 76 997.3
20260509184048 16 250 0.0 6.4 0.03 0.03 0.03 75 996.9
20260509183548 16 117 0.0 6.4 0.03 0.03 0.03 75 997.2
20260509183048 17 233 0.0 9.7 0.03 0.03 0.03 68 997.0
20260509182047 17 242 1.6 14.5 0.00 0.00 0.00 68 996.9
20260509181556 17 311 0.0 9.7 0.00 0.00 0.00 68 996.9
20260509181045 18 220 0.0 14.5 0.00 0.00 0.00 67 996.8
20260509180545 18 305 1.6 14.5 0.00 0.00 0.00 65 996.8
20260509180048 18 304 0.0 8.0 0.00 0.00 0.00 64 996.9
20260509175543 18 227 0.0 9.7 0.00 0.00 0.00 68 997.0
20260509175043 18 305 0.0 9.7 0.00 0.00 0.00 65 997.1
20260509174543 18 201 0.0 9.7 0.00 0.00 0.00 66 997.1
20260509174041 18 243 0.0 9.7 0.00 0.00 0.00 67 997.2
20260509173541 18 209 0.0 14.5 0.00 0.00 0.00 66 997.3
20260509173045 18 274 0.0 9.7 0.00 0.00 0.00 67 997.4
20260509172040 18 310 0.0 6.4 0.00 0.00 0.00 69 997.4
20260509171538 17 209 0.0 4.8 0.00 0.00 0.00 72 997.4
20260509171035 17 234 0.0 6.4 0.00 0.00 0.00 75 997.4
20260509170535 16 224 0.0 6.4 0.00 0.00 0.00 76 997.6
20260509170044 16 228 0.0 3.2 0.00 0.00 0.00 77 997.7
20260509165534 16 259 0.0 8.0 0.00 0.00 0.00 76 997.7
20260509165032 16 139 0.0 8.0 0.00 0.00 0.00 76 997.8
20260509164540 16 281 0.0 3.2 0.00 0.00 0.00 74 998.2
20260509164033 16 226 0.0 3.2 0.00 0.00 0.00 73 998.3
20260509163533 17 211 0.0 11.3 0.00 0.00 0.00 73 998.0
20260509163033 17 142 0.0 4.8 0.00 0.00 0.00 73 997.9
20260509162029 16 264 0.0 3.2 0.00 0.00 0.00 75 998.0
20260509161533 16 273 0.0 3.2 0.00 0.00 0.00 81 998.1
20260509161027 15 217 0.0 6.4 0.00 0.00 0.00 83 998.2
20260509160526 15 204 0.0 6.4 0.00 0.00 0.00 86 998.3
20260509160031 14 264 0.0 1.6 0.00 0.00 0.00 84 998.5
20260509155524 14 206 0.0 4.8 0.00 0.00 0.00 84 998.5
20260509155024 14 192 0.0 9.7 0.00 0.00 0.00 84 998.7
20260509154524 14 225 0.0 9.7 0.00 0.00 0.00 85 998.7
20260509154027 14 201 0.0 1.6 0.00 0.00 0.00 89 998.6
20260509153523 13 55 0.0 1.6 0.00 0.00 0.00 89 998.5
20260509153023 13 217 0.0 1.6 0.00 0.00 0.00 88 998.9
20260509152025 13 178 0.0 3.2 0.00 0.00 0.00 88 999.5
20260509151523 13 110 0.0 3.2 0.00 0.00 0.00 89 999.3
20260509151021 12 58 0.0 0.0 0.00 0.00 0.00 90 999.2
20260509150521 12 206 0.0 1.6 0.00 0.00 0.00 91 999.0
20260509150020 12 214 0.0 1.6 0.00 0.00 0.00 91 999.3
20260509145519 12 217 0.0 0.0 0.00 0.00 0.00 92 999.5
20260509145018 12 189 0.0 0.0 0.00 0.00 0.00 91 1000.0
20260509144517 12 281 0.0 0.0 0.00 0.00 0.00 91 1000.8